Lake Hood, AK

3:45 PM AKST on December 16, 2017 (GMT -0900)
Lake Hood

Weather History for PALH - October, 2013

Change the Weather History Date:

Sunday, October 13, 2013

  Actual Average Record
Temperature  
Mean Temperature 45 °F -  
Max Temperature 50 °F 39 °F 55 °F (2004)
Min Temperature 42 °F 29 °F 19 °F (2001)
Degree Days  
Heating Degree Days 20    
Moisture  
Dew Point 39 °F    
Average Humidity 81    
Maximum Humidity 96    
Minimum Humidity 61    
Precipitation  
Precipitation 0.31 in - - ()
Sea Level Pressure  
Sea Level Pressure 29.55 in    
Wind  
Wind Speed 7 mph (South)    
Max Wind Speed 15 mph    
Max Gust Speed 25 mph    
Visibility 8 miles    
Events Rain    
Averages and records for this station are not official NWS values.
T = Trace of Precipitation, MM = Missing Value Source: NWS Daily Summary

Daily Weather History Graph

Daily Weather History Graph

Search for Another Location

Airport or City:

Trip Planner

Search our weather history database for the weather conditions in past years. The results will help you decide how hot, cold, wet, or windy it might be!

Date:

Astronomy

Oct. 13, 2013 Rise Set
Actual Time 8:38 AM AKDT 6:52 PM AKDT
Civil Twilight 7:54 AM AKDT 7:36 PM AKDT
Nautical Twilight 7:04 AM AKDT 8:26 PM AKDT
Astronomical Twilight 6:13 AM AKDT 9:16 PM AKDT
Moon 5:04 PM AKDT (10/13) 1:32 AM AKDT (10/13)
Length of Visible Light 11h 41m
Length of Day
10h 14m
Waxing Gibbous, 71% of the Moon is Illuminated
Oct 13
Waxing Gibbous
Oct 18
Full
Oct 26
Last Quarter
Nov 3
New
Nov 9
First Quarter

Hourly Weather History & Observations

Time (AKDT) Temp. Windchill Dew Point Humidity Pressure Visibility Wind Dir Wind Speed Gust Speed Precip Events Conditions
12:53 AM 45.0 °F 41.2 °F 39.0 °F 80% 29.61 in 10.0 mi North 6.9 mph 17.3 mph N/A   Mostly Cloudy
1:53 AM 44.1 °F 39.5 °F 39.9 °F 85% 29.60 in 10.0 mi WNW 8.1 mph - N/A   Mostly Cloudy
2:53 AM 46.0 °F 44.8 °F 37.9 °F 73% 29.61 in 10.0 mi Variable 3.5 mph - N/A   Scattered Clouds
3:53 AM 46.9 °F - 37.0 °F 68% 29.56 in 10.0 mi West 8.1 mph - N/A   Clear
4:53 AM 46.0 °F 39.6 °F 37.9 °F 73% 29.54 in 10.0 mi NW 15.0 mph - N/A   Overcast
5:38 AM 46.4 °F 41.5 °F 37.4 °F 71% 29.51 in 10.0 mi NW 10.4 mph 21.9 mph N/A   Scattered Clouds
5:53 AM 46.0 °F 40.2 °F 37.9 °F 73% 29.50 in 10.0 mi North 12.7 mph 25.3 mph N/A   Mostly Cloudy
6:53 AM 48.0 °F - 37.0 °F 66% 29.50 in 10.0 mi SW 8.1 mph 24.2 mph N/A   Overcast
7:53 AM 45.0 °F 39.7 °F 39.0 °F 80% 29.50 in 10.0 mi East 10.4 mph - 0.00 in Rain Light Rain
8:53 AM 45.0 °F - 39.0 °F 80% 29.50 in 10.0 mi Calm Calm - 0.00 in   Overcast
9:53 AM 44.1 °F 42.5 °F 37.0 °F 76% 29.50 in 10.0 mi Variable 3.5 mph - 0.01 in Rain Light Rain
10:53 AM 43.0 °F 40.3 °F 39.0 °F 86% 29.49 in 10.0 mi NE 4.6 mph - 0.01 in Rain Light Rain
11:41 AM 44.6 °F - 39.2 °F 81% 29.49 in 10.0 mi Calm Calm - 0.00 in Rain Light Rain
11:53 AM 43.0 °F 41.3 °F 39.9 °F 89% 29.50 in 8.0 mi SSW 3.5 mph - 0.01 in Rain Light Rain
12:23 PM 44.6 °F - 39.2 °F 81% 29.49 in 5.0 mi Calm Calm - 0.02 in Rain Light Rain
12:30 PM 42.8 °F - 39.2 °F 87% 29.49 in 5.0 mi Calm Calm - 0.02 in Rain Light Rain
12:37 PM 42.8 °F - 39.2 °F 87% 29.49 in 5.0 mi Calm Calm - 0.03 in Rain Light Rain
12:51 PM 42.8 °F 36.2 °F 39.2 °F 87% 29.50 in 3.0 mi South 12.7 mph 18.4 mph 0.05 in Rain Rain
12:53 PM 43.0 °F 37.7 °F 39.0 °F 86% 29.50 in 4.0 mi South 9.2 mph 18.4 mph 0.05 in Rain Rain
1:01 PM 42.8 °F 37.0 °F 37.4 °F 81% 29.50 in 5.0 mi South 10.4 mph 20.7 mph 0.01 in Rain Light Rain
1:24 PM 42.8 °F 37.0 °F 39.2 °F 87% 29.52 in 4.0 mi South 10.4 mph 21.9 mph 0.06 in Rain Rain
1:49 PM 42.8 °F 37.0 °F 39.2 °F 87% 29.53 in 2.5 mi SSW 10.4 mph - 0.13 in Rain Rain
1:53 PM 42.1 °F 36.6 °F 39.9 °F 92% 29.53 in 2.5 mi SSW 9.2 mph 17.3 mph 0.14 in Rain Rain
2:02 PM 42.8 °F 37.5 °F 39.2 °F 87% 29.53 in 4.0 mi South 9.2 mph 17.3 mph 0.02 in Rain Rain
2:20 PM 42.8 °F 38.6 °F 39.2 °F 87% 29.52 in 8.0 mi SSE 6.9 mph - 0.04 in Rain Light Rain
2:53 PM 42.1 °F 39.2 °F 41.0 °F 96% 29.53 in 8.0 mi SSE 4.6 mph - 0.07 in Rain Light Rain
3:53 PM 44.1 °F 41.5 °F 43.0 °F 96% 29.54 in 9.0 mi South 4.6 mph - 0.02 in Rain Light Rain
4:53 PM 45.0 °F 40.6 °F 39.9 °F 82% 29.56 in 10.0 mi South 8.1 mph - 0.00 in   Scattered Clouds
5:53 PM 44.1 °F 40.1 °F 37.0 °F 76% 29.58 in 10.0 mi South 6.9 mph - 0.00 in   Partly Cloudy
6:53 PM 44.1 °F 40.8 °F 37.0 °F 76% 29.60 in 10.0 mi SSE 5.8 mph - N/A   Overcast
7:53 PM 43.0 °F - 37.9 °F 82% 29.62 in 10.0 mi Calm Calm - N/A   Mostly Cloudy
8:53 PM 42.1 °F - 39.0 °F 89% 29.65 in 10.0 mi Calm Calm - N/A   Scattered Clouds
9:53 PM 43.0 °F 41.3 °F 39.0 °F 86% 29.66 in 10.0 mi North 3.5 mph - N/A   Overcast
10:53 PM 45.0 °F - 36.0 °F 71% 29.68 in 10.0 mi Calm Calm - N/A   Mostly Cloudy
11:53 PM 48.0 °F - 35.1 °F 61% 29.69 in 10.0 mi South 9.2 mph - N/A   Mostly Cloudy